• In Hungary
  • List of Countries
  • For 7 days
  • Water Temperature
  • Satellite Maps
  • Weather Map
  • News
  • Weather Widgets
  • user-avatar
    Login

    Hourly Weather Midobe

    Today, 18 December, Monday

    Time Temperature Precipitation Wind Pressure Humidity
    00:00 +25°C° 0.3 mm 1 mps 723 mmHg 93%
    01:00 +24°C° 0.3 mm 1 mps 723 mmHg 94%
    02:00 +24°C° 0.2 mm 1 mps 722 mmHg 95%
    03:00 +24°C° 0.2 mm 1 mps 722 mmHg 95%
    04:00 +24°C° 0.2 mm 1 mps 722 mmHg 96%
    05:00 +24°C° 0.1 mm 1 mps 722 mmHg 96%
    06:00 +24°C° 0.1 mm 1 mps 722 mmHg 95%
    07:00 +24°C° 0.1 mm 1 mps 722 mmHg 95%
    08:00 +25°C° 0 mm 1 mps 723 mmHg 90%
    09:00 +26°C° 0 mm 1 mps 723 mmHg 85%
    10:00 +27°C° 0 mm 1 mps 724 mmHg 80%
    11:00 +28°C° 0.1 mm 1 mps 723 mmHg 75%
    12:00 +30°C° 0.1 mm 1 mps 723 mmHg 69%
    13:00 +31°C° 0.1 mm 1 mps 722 mmHg 63%
    14:00 +30°C° 0.6 mm 2 mps 722 mmHg 66%
    15:00 +30°C° 0.6 mm 2 mps 721 mmHg 68%
    16:00 +29°C° 0.6 mm 2 mps 720 mmHg 71%
    17:00 +28°C° 0.4 mm 2 mps 720 mmHg 78%
    18:00 +26°C° 0.4 mm 2 mps 721 mmHg 85%
    19:00 +25°C° 0.4 mm 1 mps 721 mmHg 91%
    20:00 +25°C° 0 mm 1 mps 721 mmHg 93%
    21:00 +24°C° 0 mm 1 mps 722 mmHg 94%
    22:00 +24°C° 0 mm 1 mps 722 mmHg 95%
    23:00 +24°C° 0 mm 1 mps 722 mmHg 96%

    Tomorrow, 19 December, Tuesday

    Time Temperature Precipitation Wind Pressure Humidity
    00:00 +24°C° 0 mm 1 mps 722 mmHg 96%
    01:00 +24°C° 0 mm 1 mps 722 mmHg 97%
    02:00 +23°C° 0 mm 1 mps 722 mmHg 97%
    03:00 +23°C° 0 mm 1 mps 721 mmHg 97%
    04:00 +23°C° 0 mm 1 mps 721 mmHg 97%
    05:00 +24°C° 0 mm 1 mps 721 mmHg 96%
    06:00 +24°C° 0 mm 1 mps 721 mmHg 96%
    07:00 +24°C° 0 mm 1 mps 722 mmHg 95%
    08:00 +25°C° 0.1 mm 1 mps 722 mmHg 88%
    09:00 +27°C° 0.1 mm 1 mps 723 mmHg 82%
    10:00 +28°C° 0.1 mm 1 mps 723 mmHg 75%
    11:00 +29°C° 0.2 mm 1 mps 723 mmHg 72%
    12:00 +30°C° 0.2 mm 1 mps 722 mmHg 69%
    13:00 +30°C° 0.2 mm 2 mps 722 mmHg 65%
    14:00 +30°C° 0.8 mm 2 mps 721 mmHg 68%
    15:00 +29°C° 0.8 mm 2 mps 720 mmHg 71%
    16:00 +29°C° 0.8 mm 2 mps 720 mmHg 74%
    17:00 +28°C° 0.2 mm 2 mps 720 mmHg 80%
    18:00 +26°C° 0.2 mm 2 mps 720 mmHg 85%
    19:00 +25°C° 0.2 mm 1 mps 721 mmHg 91%
    20:00 +25°C° 0 mm 1 mps 721 mmHg 92%
    21:00 +24°C° 0 mm 1 mps 722 mmHg 93%
    22:00 +24°C° 0 mm 1 mps 723 mmHg 95%
    23:00 +24°C° 0 mm 1 mps 722 mmHg 95%

    Day after tomorrow, 20 December, Wednesday

    Time Temperature Precipitation Wind Pressure Humidity
    00:00 +24°C° 0 mm 1 mps 722 mmHg 96%
    01:00 +23°C° 0 mm 1 mps 722 mmHg 96%
    02:00 +23°C° 0 mm 1 mps 721 mmHg 96%
    03:00 +23°C° 0 mm 1 mps 721 mmHg 97%
    04:00 +23°C° 0 mm 1 mps 720 mmHg 97%
    05:00 +23°C° 0 mm 1 mps 721 mmHg 96%
    06:00 +24°C° 0 mm 1 mps 721 mmHg 95%
    07:00 +22°C° 0 mm 0 mps 722 mmHg 94%
    08:00 +23°C° 0 mm 0 mps 722 mmHg 86%
    09:00 +27°C° 0 mm 1 mps 723 mmHg 79%
    10:00 +29°C° 0 mm 1 mps 723 mmHg 71%
    11:00 +29°C° 0 mm 1 mps 723 mmHg 68%
    12:00 +30°C° 0 mm 1 mps 722 mmHg 64%
    13:00 +31°C° 0 mm 2 mps 721 mmHg 61%
    14:00 +31°C° 0.1 mm 2 mps 721 mmHg 62%
    15:00 +30°C° 0.1 mm 2 mps 720 mmHg 64%
    16:00 +30°C° 0.1 mm 3 mps 720 mmHg 66%
    17:00 +29°C° 0.3 mm 2 mps 720 mmHg 73%
    18:00 +27°C° 0.3 mm 2 mps 720 mmHg 81%
    19:00 +25°C° 0.3 mm 1 mps 721 mmHg 88%
    20:00 +25°C° 0.1 mm 1 mps 721 mmHg 90%
    21:00 +25°C° 0.1 mm 1 mps 722 mmHg 92%
    22:00 +24°C° 0.1 mm 1 mps 723 mmHg 94%
    23:00 +24°C° 0 mm 1 mps 722 mmHg 95%

    21 December, Thursday

    Time Temperature Precipitation Wind Pressure Humidity
    00:00 +24°C° 0 mm 1 mps 722 mmHg 95%
    01:00 +24°C° 0 mm 1 mps 722 mmHg 96%
    02:00 +24°C° 0 mm 1 mps 721 mmHg 96%
    03:00 +24°C° 0 mm 1 mps 721 mmHg 96%
    04:00 +24°C° 0 mm 1 mps 721 mmHg 96%
    05:00 +24°C° 0 mm 1 mps 722 mmHg 95%
    06:00 +24°C° 0 mm 1 mps 722 mmHg 94%
    07:00 +22°C° 0 mm 0 mps 723 mmHg 93%
    08:00 +24°C° 0 mm 0 mps 723 mmHg 85%
    09:00 +26°C° 0 mm 0 mps 723 mmHg 76%
    10:00 +30°C° 0 mm 1 mps 724 mmHg 68%
    11:00 +31°C° 0 mm 1 mps 723 mmHg 63%
    12:00 +32°C° 0 mm 1 mps 722 mmHg 58%
    13:00 +33°C° 0 mm 1 mps 722 mmHg 53%
    14:00 +32°C° 0.2 mm 1 mps 721 mmHg 57%
    15:00 +31°C° 0.2 mm 2 mps 720 mmHg 62%
    16:00 +30°C° 0.2 mm 2 mps 720 mmHg 66%
    17:00 +29°C° 0.5 mm 2 mps 720 mmHg 73%
    18:00 +27°C° 0.5 mm 1 mps 721 mmHg 80%
    19:00 +26°C° 0.5 mm 1 mps 721 mmHg 88%
    20:00 +25°C° 0.2 mm 1 mps 722 mmHg 90%
    21:00 +25°C° 0.2 mm 1 mps 722 mmHg 91%
    22:00 +25°C° 0.2 mm 1 mps 723 mmHg 93%
    23:00 +24°C° 0 mm 1 mps 723 mmHg 94%

    22 December, Friday

    Time Temperature Precipitation Wind Pressure Humidity
    00:00 +24°C° 0 mm 1 mps 722 mmHg 95%
    01:00 +24°C° 0 mm 1 mps 722 mmHg 96%
    02:00 +24°C° 0 mm 1 mps 722 mmHg 95%
    03:00 +24°C° 0 mm 1 mps 722 mmHg 95%
    04:00 +24°C° 0 mm 1 mps 722 mmHg 95%
    05:00 +24°C° 0 mm 1 mps 722 mmHg 95%
    06:00 +24°C° 0 mm 1 mps 723 mmHg 94%
    07:00 +24°C° 0 mm 1 mps 723 mmHg 93%
    08:00 +25°C° 0 mm 1 mps 723 mmHg 87%
    09:00 +27°C° 0 mm 1 mps 724 mmHg 80%
    10:00 +28°C° 0 mm 1 mps 724 mmHg 73%
    11:00 +30°C° 0.3 mm 1 mps 723 mmHg 68%
    12:00 +31°C° 0.3 mm 1 mps 723 mmHg 62%
    13:00 +32°C° 0.3 mm 1 mps 722 mmHg 57%
    14:00 +31°C° 1 mm 1 mps 721 mmHg 62%
    15:00 +30°C° 1 mm 1 mps 721 mmHg 67%
    16:00 +29°C° 1 mm 1 mps 720 mmHg 72%
    17:00 +28°C° 1 mm 1 mps 720 mmHg 78%
    18:00 +26°C° 1 mm 1 mps 721 mmHg 84%
    19:00 +25°C° 1 mm 1 mps 721 mmHg 91%
    20:00 +25°C° 0.1 mm 1 mps 721 mmHg 92%
    21:00 +24°C° 0.1 mm 1 mps 722 mmHg 93%
    22:00 +24°C° 0.1 mm 1 mps 722 mmHg 94%
    23:00 +24°C° 0 mm 1 mps 722 mmHg 95%

    23 December, Saturday

    Time Temperature Precipitation Wind Pressure Humidity
    00:00 +24°C° 0 mm 1 mps 722 mmHg 95%
    01:00 +24°C° 0 mm 1 mps 721 mmHg 96%
    02:00 +23°C° 0 mm 1 mps 721 mmHg 96%
    03:00 +23°C° 0 mm 1 mps 721 mmHg 97%
    04:00 +23°C° 0 mm 1 mps 721 mmHg 97%
    05:00 +23°C° 0 mm 1 mps 721 mmHg 97%
    06:00 +24°C° 0 mm 1 mps 721 mmHg 96%
    07:00 +24°C° 0 mm 1 mps 722 mmHg 96%
    08:00 +25°C° 0 mm 1 mps 722 mmHg 89%
    09:00 +27°C° 0 mm 1 mps 722 mmHg 82%
    10:00 +28°C° 0 mm 1 mps 723 mmHg 74%
    11:00 +29°C° 0.4 mm 1 mps 722 mmHg 71%
    12:00 +30°C° 0.4 mm 1 mps 721 mmHg 67%
    13:00 +31°C° 0.4 mm 2 mps 721 mmHg 63%
    14:00 +30°C° 1 mm 2 mps 720 mmHg 67%
    15:00 +30°C° 1 mm 2 mps 720 mmHg 71%
    16:00 +29°C° 1 mm 2 mps 719 mmHg 75%
    17:00 +28°C° 0.5 mm 2 mps 719 mmHg 80%
    18:00 +26°C° 0.5 mm 1 mps 720 mmHg 86%
    19:00 +25°C° 0.5 mm 1 mps 720 mmHg 91%
    20:00 +25°C° 0.7 mm 1 mps 721 mmHg 92%
    21:00 +25°C° 0.7 mm 1 mps 721 mmHg 92%
    22:00 +24°C° 0.7 mm 1 mps 722 mmHg 93%
    23:00 +24°C° 0.3 mm 1 mps 721 mmHg 93%
    Show more